This is the latest recevied weather packets stored in our database for station/object W8AN. If no packets are shown the sender has not sent any weather packets the latest 10 day(s).
| Time | Temp. | Humidity | Pressure | Rain* | Wind** | Luminosity | Snow |
|---|---|---|---|---|---|---|---|
| 1777355210 | 16.11° C | 86% | 4265.1 hPa | 7.87 mm | - | 0 W/m² | - |
| 1777354906 | 16.11° C | 86% | 4265.2 hPa | 7.87 mm | - | 0 W/m² | - |
| 1777354602 | 16.11° C | 86% | 4265.3 hPa | 7.87 mm | - | 0 W/m² | - |
| 1777354298 | 16.11° C | 86% | 4265.5 hPa | 7.87 mm | - | 0 W/m² | - |
| 1777353995 | 16.11° C | 85% | 4265.4 hPa | 10.67 mm | - | 0 W/m² | - |
| 1777353691 | 16.11° C | 85% | 4265.9 hPa | 8.89 mm | - | 0 W/m² | - |
| 1777353390 | 16.11° C | 85% | 4265.8 hPa | 7.87 mm | - | 0 W/m² | - |
| 1777353087 | 16.11° C | 85% | 4265.6 hPa | 7.11 mm | - | 0 W/m² | - |
| 1777352786 | 16.67° C | 84% | 4265.3 hPa | 7.87 mm | - | 0 W/m² | - |
| 1777352484 | 16.67° C | 84% | 4265.3 hPa | 8.89 mm | - | 0 W/m² | - |
| 1777352181 | 16.67° C | 84% | 4265.3 hPa | 7.87 mm | - | 0 W/m² | - |
| 1777351878 | 16.67° C | 84% | 4265.4 hPa | 6.1 mm | - | 0 W/m² | - |
| 1777351575 | 16.67° C | 83% | 4265.2 hPa | 6.1 mm | - | 0 W/m² | - |
| 1777351273 | 16.67° C | 83% | 4265.3 hPa | 6.1 mm | - | 0 W/m² | - |
| 1777350972 | 17.22° C | 83% | 4265.1 hPa | 7.87 mm | - | 0 W/m² | - |
| 1777350669 | 17.22° C | 83% | 4265 hPa | 3.05 mm | - | 0 W/m² | - |
| 1777350365 | 17.22° C | 82% | 4264.8 hPa | 1.27 mm | - | 0 W/m² | - |
| 1777350062 | 17.22° C | 82% | 4264.8 hPa | 1.27 mm | - | 0 W/m² | - |
| 1777349759 | 17.22° C | 82% | 4264.6 hPa | 1.78 mm | - | 0 W/m² | - |
| 1777349456 | 17.22° C | 82% | 4264.6 hPa | 3.56 mm | - | 0 W/m² | - |
| 1777349155 | 17.78° C | 81% | 4264.7 hPa | 3.05 mm | - | 0 W/m² | - |
| 1777348851 | 17.78° C | 80% | 4264.7 hPa | 1.27 mm | - | 0 W/m² | - |
| 1777348550 | 18.33° C | 77% | 4264.8 hPa | 0 mm | - | 0 W/m² | - |
| 1777348247 | 18.33° C | 78% | 4264.9 hPa | 0 mm | - | 0 W/m² | - |
| 1777347945 | 18.33° C | 77% | 4264.4 hPa | 0 mm | - | 0 W/m² | - |
* Rain latest hour (hover to see other rain measurements)
** Current wind speed in m/s (hover to see current wind gust speed)